Year,Month,Day,Hour,Minute,Value (Times are PST for temperature in C)
2011,02,19,00,00,2.70
2011,02,19,00,01,2.70
2011,02,19,00,02,2.70
2011,02,19,00,03,2.70
2011,02,19,00,04,2.70
2011,02,19,00,05,2.70
2011,02,19,00,06,2.70
2011,02,19,00,07,2.80
2011,02,19,00,08,2.80
2011,02,19,00,09,2.80
2011,02,19,00,10,2.80
2011,02,19,00,11,2.80
2011,02,19,00,12,2.80
2011,02,19,00,13,2.80
2011,02,19,00,14,2.80
2011,02,19,00,15,2.80
2011,02,19,00,16,2.80
2011,02,19,00,17,2.80
2011,02,19,00,18,2.80
2011,02,19,00,19,2.80
2011,02,19,00,20,2.80
2011,02,19,00,21,2.90
2011,02,19,00,22,2.90
2011,02,19,00,23,2.90
2011,02,19,00,24,2.90
2011,02,19,00,25,2.90
2011,02,19,00,26,2.90
2011,02,19,00,27,2.90
2011,02,19,00,28,2.90
2011,02,19,00,29,3.00
2011,02,19,00,30,3.00
2011,02,19,00,31,2.90
2011,02,19,00,32,2.90
2011,02,19,00,33,2.90
2011,02,19,00,34,2.90
2011,02,19,00,35,2.90
2011,02,19,00,36,2.90
2011,02,19,00,37,2.80
2011,02,19,00,38,2.80
2011,02,19,00,39,2.80
2011,02,19,00,40,2.80
2011,02,19,00,41,2.80
2011,02,19,00,42,2.80
2011,02,19,00,43,2.70
2011,02,19,00,44,2.70
2011,02,19,00,45,2.70
2011,02,19,00,46,2.70
2011,02,19,00,47,2.70
2011,02,19,00,48,2.70
2011,02,19,00,49,2.70
2011,02,19,00,50,2.70
2011,02,19,00,51,2.70
2011,02,19,00,52,2.80
2011,02,19,00,53,2.80
2011,02,19,00,54,2.80
2011,02,19,00,55,2.80
2011,02,19,00,56,2.70
2011,02,19,00,57,2.80
2011,02,19,00,58,2.80
2011,02,19,00,59,2.80
2011,02,19,01,00,2.80
2011,02,19,01,01,2.80
2011,02,19,01,02,2.80
2011,02,19,01,03,2.80
2011,02,19,01,04,2.80
2011,02,19,01,05,2.70
2011,02,19,01,06,2.70
2011,02,19,01,07,2.70
2011,02,19,01,08,2.70
2011,02,19,01,09,2.70
2011,02,19,01,10,2.70
2011,02,19,01,11,2.70
2011,02,19,01,12,2.70
2011,02,19,01,13,2.70
2011,02,19,01,14,2.70
2011,02,19,01,15,2.70
2011,02,19,01,16,2.70
2011,02,19,01,17,2.60
2011,02,19,01,18,2.60
2011,02,19,01,19,2.60
2011,02,19,01,20,2.60
2011,02,19,01,21,2.60
2011,02,19,01,22,2.60
2011,02,19,01,23,2.50
2011,02,19,01,24,2.50
2011,02,19,01,25,2.50
2011,02,19,01,26,2.40
2011,02,19,01,27,2.40
2011,02,19,01,28,2.40
2011,02,19,01,29,2.40
2011,02,19,01,30,2.40
2011,02,19,01,31,2.30
2011,02,19,01,32,2.30
2011,02,19,01,33,2.30
2011,02,19,01,34,2.30
2011,02,19,01,35,2.30
2011,02,19,01,36,2.30
2011,02,19,01,37,2.20
2011,02,19,01,38,2.20
2011,02,19,01,39,2.20
2011,02,19,01,40,2.20
2011,02,19,01,41,2.20
2011,02,19,01,42,2.10
2011,02,19,01,43,2.10
2011,02,19,01,44,2.10
2011,02,19,01,45,2.10
2011,02,19,01,46,2.10
2011,02,19,01,47,2.00
2011,02,19,01,48,2.00
2011,02,19,01,49,2.00
2011,02,19,01,50,2.00
2011,02,19,01,51,2.00
2011,02,19,01,52,2.00
2011,02,19,01,53,2.00
2011,02,19,01,54,2.00
2011,02,19,01,55,2.10
2011,02,19,01,56,2.10
2011,02,19,01,57,2.10
2011,02,19,01,58,2.10
2011,02,19,01,59,2.10
2011,02,19,02,00,2.10
2011,02,19,02,01,2.10
2011,02,19,02,02,2.10
2011,02,19,02,03,2.10
2011,02,19,02,04,2.10
2011,02,19,02,05,2.10
2011,02,19,02,06,2.10
2011,02,19,02,07,2.10
2011,02,19,02,08,2.10
2011,02,19,02,09,2.10
2011,02,19,02,10,2.10
2011,02,19,02,11,2.10
2011,02,19,02,12,2.10
2011,02,19,02,13,2.10
2011,02,19,02,14,2.10
2011,02,19,02,15,2.10
2011,02,19,02,16,2.10
2011,02,19,02,17,2.10
2011,02,19,02,18,2.10
2011,02,19,02,19,2.10
2011,02,19,02,20,2.10
2011,02,19,02,21,2.10
2011,02,19,02,22,2.10
2011,02,19,02,23,2.10
2011,02,19,02,24,2.00
2011,02,19,02,25,2.00
2011,02,19,02,26,2.00
2011,02,19,02,27,2.00
2011,02,19,02,28,2.00
2011,02,19,02,29,2.00
2011,02,19,02,30,2.00
2011,02,19,02,31,2.00
2011,02,19,02,32,2.10
2011,02,19,02,33,2.10
2011,02,19,02,34,2.10
2011,02,19,02,35,2.10
2011,02,19,02,36,2.10
2011,02,19,02,37,2.10
2011,02,19,02,38,2.10
2011,02,19,02,39,2.20
2011,02,19,02,40,2.20
2011,02,19,02,41,2.20
2011,02,19,02,42,2.20
2011,02,19,02,43,2.20
2011,02,19,02,44,2.20
2011,02,19,02,45,2.20
2011,02,19,02,46,2.20
2011,02,19,02,47,2.30
2011,02,19,02,48,2.30
2011,02,19,02,49,2.30
2011,02,19,02,50,2.30
2011,02,19,02,51,2.30
2011,02,19,02,52,2.30
2011,02,19,02,53,2.30
2011,02,19,02,54,2.30
2011,02,19,02,55,2.30
2011,02,19,02,56,2.30
2011,02,19,02,57,2.30
2011,02,19,02,58,2.30
2011,02,19,02,59,2.30
2011,02,19,03,00,2.30
2011,02,19,03,01,2.30
2011,02,19,03,02,2.30
2011,02,19,03,03,2.30
